FALCON 9 DEB (47683 NORAD) Tracking and Keplerian Element Data

This shows tracking and keplerian element data for the satellite.

Feedback or suggestion? Click here.




ElementValue
Catalog47683
NameFALCON 9 DEB
Epoch Orbit398
Epoch Day69.90393075
Epoch Year2021
RAAN343.6491
Inclination53.0361
Eccentricity0.0009322
Argument of Perigee267.428
Mean Anonmoly92.5702
Mean Motion16.46768734
Decay Rate0.10165652
L11 47683U 21012BR 21069.90393075 .10165652 12543-4 18990-3 0 9993
L22 47683 53.0361 343.6491 0009322 267.4280 92.5702 16.46768734 3980

Live tracking and technical data element details for FALCON 9 DEB (NORAD 47683). FALCON 9 DEB can be tracked NOW for your location showing map with azimuth and elevation plus other details from your city location.

Track the satellite on the map from your city or location and see movement details for azimuth, elevation, latitude, longitude, range, height, and movement on the map or in text.







IsCatalogInMostPopularTable: catalog: 47683, numindb: 16
Update: records affected: 1



GetName: 47683 FALCON 9 DEB

Hit Count: updated at: Sat, 10 Apr 2021 19:03:28 GMT